Location: Ladysmith
(45.4630°N, 91.1040°W)
Time: 09:14:56
(UTC-05:00)

Amateur Radio Satellites - All Passes

Search period start: 01 October 2014 08:44
Search period end: 02 October 2014 08:44
Location: Ladysmith, 45.4630°N, 91.1040°W

Satellite Date Start Highest point End Downlink Frequencies (MHz)
Time Altitude Azimuth
STRAND 1 01 Oct 08:49:22 08:50:10 10° 274° (W) 08:50:58 ?
RS-15 01 Oct 08:57:53 09:07:33 33° 22° (NNE) 09:17:27 29.354 - 29.394 USB, Beacon 29.352 USB
Sapphire 01 Oct 09:42:57 09:48:06 48° 115° (ESE) 09:53:18 437.095 MHz 1200 baud AX-25 AFSK
HO-68 01 Oct 09:50:50 09:57:50 51° 101° (E) 10:04:47 435.675 MHz FM
Oscar 11 01 Oct 09:54:31 09:57:31 18° 92° (E) 10:00:30 145.825 FM, Beacon 2401.500 USB
PCSat 01 Oct 10:08:13 10:13:37 81° 120° (ESE) 10:19:04 145.825 MHz
FUNcube-1 01 Oct 10:19:36 10:22:15 15° 89° (E) 10:24:51 145.950 - 145.970 MHz USB
UKube-1 01 Oct 10:23:20 10:27:31 43° 99° (E) 10:31:41 145.840 MHz, 145.915 MHz
ZACube-1 01 Oct 11:03:36 11:07:57 41° 98° (E) 11:12:11 437.345 MHz
RS-15 01 Oct 11:10:55 11:22:03 76° 51° (NE) 11:33:37 29.354 - 29.394 USB, Beacon 29.352 USB
Sapphire 01 Oct 11:26:53 11:31:43 32° 314° (NW) 11:36:35 437.095 MHz 1200 baud AX-25 AFSK
Oscar 11 01 Oct 11:29:48 11:33:57 46° 289° (WNW) 11:38:04 145.825 FM, Beacon 2401.500 USB
HO-68 01 Oct 11:38:55 11:45:19 36° 300° (WNW) 11:51:43 435.675 MHz FM
PCSat 01 Oct 11:53:32 11:57:41 22° 321° (NW) 12:01:53 145.825 MHz
FUNcube-1 01 Oct 11:54:33 11:59:04 60° 287° (WNW) 12:03:27 145.950 - 145.970 MHz USB
UKube-1 01 Oct 12:00:10 12:03:27 21° 297° (WNW) 12:06:43 145.840 MHz, 145.915 MHz
Oscar 19 01 Oct 12:37:45 12:41:54 25° 63° (ENE) 12:46:04 437.125 CW, 437.150 USB
ZACube-1 01 Oct 12:40:31 12:44:06 23° 296° (WNW) 12:47:37 437.345 MHz
ITAMSAT 1 01 Oct 12:51:41 12:54:40 16° 57° (ENE) 12:57:39 435.822 SSB
Uribyol 2 01 Oct 12:52:13 12:55:25 17° 58° (ENE) 12:58:38 436.500 FM
JAS-1B 01 Oct 13:17:19 13:24:06 42° 67° (ENE) 13:29:56 435.800 - 435.900 CW/SSB
Oscar 16 01 Oct 13:17:45 13:22:48 55° 71° (ENE) 13:27:53 437.025 USB, Beacon 2401.1428
RS-15 01 Oct 13:24:01 13:33:33 35° 254° (WSW) 13:43:26 29.354 - 29.394 USB, Beacon 29.352 USB
AO-Echo 01 Oct 13:25:36 13:29:40 30° 66° (ENE) 13:33:47 ?
AO-27 01 Oct 13:28:20 13:32:50 31° 65° (ENE) 13:37:22 436.795 MHz FM
Gurwin Techsat 1B 01 Oct 13:55:14 13:59:39 28° 63° (ENE) 14:04:04 435.225 FM
Oscar 19 01 Oct 14:15:57 14:20:58 49° 261° (W) 14:26:00 437.125 CW, 437.150 USB
TMSAT-1 01 Oct 14:23:12 14:27:58 35° 66° (ENE) 14:32:44 436.925 FM
ITAMSAT 1 01 Oct 14:28:18 14:33:29 84° 256° (WSW) 14:38:43 435.822 SSB
Uribyol 2 01 Oct 14:29:04 14:34:15 78° 256° (WSW) 14:39:30 436.500 FM
MaSat-1 01 Oct 14:29:16 14:32:17 25° 51° (NE) 14:34:56 437.345 MHz
Saudisat 1A 01 Oct 14:36:03 14:40:26 72° 123° (ESE) 14:44:50 436.775 MHz
Uosat F 01 Oct 14:50:09 14:51:54 12° 55° (NE) 14:53:39 435.120 FM
AO-7 01 Oct 14:51:25 14:58:25 32° 54° (NE) 15:05:25 29.400 - 29.500 MHz
Oscar 16 01 Oct 14:58:37 15:02:30 21° 268° (W) 15:06:23 437.025 USB, Beacon 2401.1428
AO-Echo 01 Oct 15:04:12 15:08:24 32° 264° (W) 15:12:39 ?
AO-27 01 Oct 15:07:27 15:12:15 38° 263° (W) 15:17:05 436.795 MHz FM
JAS-1B 01 Oct 15:07:52 15:14:47 39° 262° (W) 15:20:44 435.800 - 435.900 CW/SSB
Gurwin Techsat 1B 01 Oct 15:34:20 15:39:23 45° 262° (W) 15:44:29 435.225 FM
TMSAT-1 01 Oct 16:03:06 16:07:52 34° 264° (W) 16:12:41 436.925 FM
MaSat-1 01 Oct 16:06:04 16:08:31 19° 255° (WSW) 16:10:44 437.345 MHz
ITAMSAT 1 01 Oct 16:12:24 16:13:46 11° 274° (W) 16:15:08 435.822 SSB
Uribyol 2 01 Oct 16:14:27 16:14:35 10° 274° (W) 16:14:43 436.500 FM
Saudisat 1A 01 Oct 16:17:10 16:20:28 20° 323° (NW) 16:23:48 436.775 MHz
Uosat F 01 Oct 16:24:51 16:29:50 77° 73° (ENE) 16:34:52 435.120 FM
AO-7 01 Oct 16:42:22 16:50:38 70° 254° (WSW) 16:58:56 29.400 - 29.500 MHz
Oscar 10/S400 01 Oct 16:45:14 17:02:16 40° 155° (SSE) 17:38:10 145.825 - 145.975 CW/USB, Beacon 145.810 USB
Sapphire 01 Oct 16:46:11 16:49:24 16° 32° (NNE) 16:52:37 437.095 MHz 1200 baud AX-25 AFSK
Hamsat 01 Oct 16:56:37 16:59:36 19° 64° (ENE) 17:02:34 145.90 MHz
KITSAT 1 01 Oct 17:01:56 17:09:35 49° 113° (ESE) 17:17:15 435.175 FM
JAS-2 01 Oct 17:09:06 17:13:48 36° 65° (ENE) 17:18:48 435.800 - 435.900 CW/SSB, 435.910 FM
PCSat 01 Oct 17:11:18 17:15:29 22° 39° (NE) 17:19:40 145.825 MHz
Uosat F 01 Oct 18:06:38 18:09:12 14° 271° (W) 18:11:47 435.120 FM
AO-40 01 Oct 18:07:51 00:25:20 35° 185° (S) 05:47:00 Beacon 2401.320
OPAL 01 Oct 18:11:06 18:16:14 73° 105° (ESE) 18:21:15 ?
Sapphire 01 Oct 18:28:33 18:33:58 62° 54° (NE) 18:39:20 437.095 MHz 1200 baud AX-25 AFSK
Hamsat 01 Oct 18:31:02 18:35:13 48° 261° (W) 18:39:24 145.90 MHz
HO-68 01 Oct 18:40:14 18:42:19 11° 43° (NE) 18:44:24 435.675 MHz FM
AO-7 01 Oct 18:41:02 18:44:55 14° 275° (W) 18:48:49 29.400 - 29.500 MHz
SO-67 01 Oct 18:44:50 18:47:52 30° 71° (ENE) 18:50:56 435.3500 MHz FM
PCSat 01 Oct 18:54:06 18:59:34 81° 240° (WSW) 19:04:58 145.825 MHz
JAS-2 01 Oct 18:54:27 18:59:01 31° 266° (W) 19:03:50 435.800 - 435.900 CW/SSB, 435.910 FM
KITSAT 1 01 Oct 18:57:17 19:05:02 48° 315° (NW) 19:12:51 435.175 FM
STRAND 1 01 Oct 19:13:50 19:18:18 29° 95° (E) 19:22:44 ?
SO-50 01 Oct 19:39:20 19:43:46 62° 122° (ESE) 19:48:20 436.795 FM
OPAL 01 Oct 19:51:12 19:54:32 18° 304° (NW) 19:57:49 ?
UOSAT-12 01 Oct 20:06:44 20:08:28 12° 107° (ESE) 20:10:12 437.025 FM, 437.400 FM
Sapphire 01 Oct 20:12:52 20:16:55 22° 253° (WSW) 20:20:57 437.095 MHz 1200 baud AX-25 AFSK
SO-67 01 Oct 20:18:36 20:20:57 17° 267° (W) 20:23:20 435.3500 MHz FM
HO-68 01 Oct 20:21:34 20:28:20 49° 64° (ENE) 20:35:09 435.675 MHz FM
PCSat 01 Oct 20:40:07 20:42:04 12° 258° (WSW) 20:44:02 145.825 MHz
Oscar 11 01 Oct 20:51:51 20:55:02 20° 64° (ENE) 20:58:14 145.825 FM, Beacon 2401.500 USB
STRAND 1 01 Oct 20:52:48 20:57:35 40° 293° (WNW) 21:02:21 ?
KITSAT 1 01 Oct 20:57:00 21:02:42 20° 342° (NNW) 21:08:24 435.175 FM
FUNcube-1 01 Oct 21:18:08 21:21:10 18° 62° (ENE) 21:24:14 145.950 - 145.970 MHz USB
ISS 01 Oct 21:18:20 21:18:59 10° 131° (SE) 21:19:39 145.800 FM
UKube-1 01 Oct 21:20:48 21:24:59 50° 71° (ENE) 21:29:12 145.840 MHz, 145.915 MHz
SO-50 01 Oct 21:21:03 21:24:43 23° 322° (NW) 21:28:29 436.795 FM
Saudisat 1A 01 Oct 21:21:54 21:25:09 20° 36° (NE) 21:28:24 436.775 MHz
UOSAT-12 01 Oct 21:43:12 21:47:51 89° 125° (SE) 21:52:37 437.025 FM, 437.400 FM
ZACube-1 01 Oct 22:01:53 22:06:12 44° 70° (ENE) 22:10:37 437.345 MHz
HO-68 01 Oct 22:09:42 22:16:11 37° 263° (W) 22:22:45 435.675 MHz FM
Oscar 11 01 Oct 22:26:45 22:30:56 44° 261° (W) 22:35:08 145.825 FM, Beacon 2401.500 USB
ISS 01 Oct 22:51:49 22:55:08 69° 148° (SSE) 22:58:27 145.800 FM
FUNcube-1 01 Oct 22:52:36 22:57:06 59° 260° (W) 23:01:41 145.950 - 145.970 MHz USB
KITSAT 1 01 Oct 22:56:25 23:01:43 18° 12° (NNE) 23:07:00 435.175 FM
UKube-1 01 Oct 22:58:38 23:01:28 17° 268° (W) 23:04:20 145.840 MHz, 145.915 MHz
Saudisat 1A 01 Oct 23:00:49 23:05:15 76° 236° (SW) 23:09:38 436.775 MHz
UOSAT-12 01 Oct 23:25:17 23:28:40 19° 326° (NW) 23:32:05 437.025 FM, 437.400 FM
ZACube-1 01 Oct 23:39:21 23:42:49 21° 268° (W) 23:46:20 437.345 MHz
ISS 02 Oct 00:28:57 00:32:01 33° 347° (NNW) 00:35:06 145.800 FM
KITSAT 1 02 Oct 00:52:18 00:59:47 39° 40° (NE) 01:07:12 435.175 FM
Oscar 16 02 Oct 01:28:32 01:31:40 16° 89° (E) 01:34:47 437.025 USB, Beacon 2401.1428
RS-15 02 Oct 01:38:23 01:47:56 36° 107° (ESE) 01:57:22 29.354 - 29.394 USB, Beacon 29.352 USB
ISS 02 Oct 02:06:21 02:09:19 28° 7° (N) 02:12:16 145.800 FM
Oscar 19 02 Oct 02:25:10 02:30:11 50° 100° (E) 02:35:09 437.125 CW, 437.150 USB
SO-50 02 Oct 02:28:53 02:32:31 21° 36° (NE) 02:36:11 436.795 FM
TMSAT-1 02 Oct 02:39:10 02:40:31 11° 86° (E) 02:41:52 436.925 FM
ITAMSAT 1 02 Oct 02:39:20 02:43:54 30° 95° (E) 02:48:26 435.822 SSB
Uribyol 2 02 Oct 02:39:55 02:44:35 32° 96° (E) 02:49:12 436.500 FM
KITSAT 1 02 Oct 02:47:42 02:55:41 65° 243° (WSW) 03:03:36 435.175 FM
JAS-1B 02 Oct 02:48:51 02:54:21 48° 100° (E) 03:00:15 435.800 - 435.900 CW/SSB
Oscar 16 02 Oct 03:06:24 03:11:33 70° 287° (WNW) 03:16:39 437.025 USB, Beacon 2401.1428
AO-Echo 02 Oct 03:07:56 03:12:56 66° 102° (ESE) 03:18:04 ?
AO-27 02 Oct 03:17:40 03:22:53 66° 102° (ESE) 03:28:05 436.795 MHz FM
ISS 02 Oct 03:43:03 03:46:23 71° 27° (NNE) 03:49:42 145.800 FM
Gurwin Techsat 1B 02 Oct 03:47:56 03:53:14 62° 101° (ESE) 03:58:29 435.225 FM
RS-15 02 Oct 03:48:29 03:59:27 72° 310° (NW) 04:10:27 29.354 - 29.394 USB, Beacon 29.352 USB
OPAL 02 Oct 03:50:37 03:54:49 26° 60° (ENE) 03:59:02 ?
Oscar 19 02 Oct 04:05:10 04:09:13 24° 298° (WNW) 04:13:14 437.125 CW, 437.150 USB
SO-50 02 Oct 04:08:49 04:13:39 81° 236° (SW) 04:18:32 436.795 FM
TMSAT-1 02 Oct 04:15:55 04:21:16 81° 104° (ESE) 04:26:35 436.925 FM
ITAMSAT 1 02 Oct 04:18:38 04:23:28 39° 293° (WNW) 04:28:18 435.822 SSB
Uribyol 2 02 Oct 04:19:18 04:24:05 37° 294° (WNW) 04:28:50 436.500 FM
Uosat F 02 Oct 04:31:13 04:34:52 20° 92° (E) 04:38:31 435.120 FM
UOSAT-12 02 Oct 04:31:15 04:35:13 25° 39° (NE) 04:39:07 437.025 FM, 437.400 FM
JAS-1B 02 Oct 04:40:13 04:44:52 27° 298° (WNW) 04:49:42 435.800 - 435.900 CW/SSB
AO-7 02 Oct 04:41:38 04:49:08 36° 97° (E) 04:56:35 29.400 - 29.500 MHz
KITSAT 1 02 Oct 04:46:21 04:49:29 13° 263° (W) 04:52:37 435.175 FM
AO-Echo 02 Oct 04:47:50 04:51:15 19° 299° (WNW) 04:54:43 ?
Oscar 16 02 Oct 04:48:32 04:49:58 11° 306° (NW) 04:51:23 437.025 USB, Beacon 2401.1428
AO-27 02 Oct 04:58:14 05:01:54 20° 300° (WNW) 05:05:34 436.795 MHz FM
ISS 02 Oct 05:20:20 05:22:47 19° 224° (SW) 05:25:13 145.800 FM
OPAL 02 Oct 05:28:21 05:33:25 50° 258° (WSW) 05:38:30 ?
Gurwin Techsat 1B 02 Oct 05:28:52 05:32:44 21° 300° (WNW) 05:36:36 435.225 FM
MaSat-1 02 Oct 05:49:20 05:54:09 69° 115° (ESE) 05:58:41 437.345 MHz
SO-50 02 Oct 05:51:59 05:53:28 11° 253° (WSW) 05:54:56 436.795 FM
TMSAT-1 02 Oct 05:57:19 06:00:32 17° 302° (WNW) 06:03:44 436.925 FM
JAS-2 02 Oct 05:58:29 06:04:28 33° 95° (E) 06:10:59 435.800 - 435.900 CW/SSB, 435.910 FM
RS-15 02 Oct 06:04:37 06:14:05 32° 340° (NNW) 06:23:41 29.354 - 29.394 USB, Beacon 29.352 USB
Uosat F 02 Oct 06:09:04 06:14:00 55° 289° (WNW) 06:18:55 435.120 FM
UOSAT-12 02 Oct 06:11:03 06:15:43 59° 239° (WSW) 06:20:17 437.025 FM, 437.400 FM
Hamsat 02 Oct 06:14:55 06:18:23 25° 94° (E) 06:21:49 145.90 MHz
STRAND 1 02 Oct 06:31:49 06:36:44 52° 70° (ENE) 06:41:42 ?
AO-7 02 Oct 06:34:11 06:42:14 58° 297° (WNW) 06:50:17 29.400 - 29.500 MHz
MaSat-1 02 Oct 07:27:35 07:30:59 19° 312° (NW) 07:34:13 437.345 MHz
SO-67 02 Oct 07:38:56 07:41:54 26° 95° (E) 07:44:50 435.3500 MHz FM
JAS-2 02 Oct 07:43:16 07:49:40 54° 291° (WNW) 07:56:48 435.800 - 435.900 CW/SSB, 435.910 FM
Hamsat 02 Oct 07:50:38 07:54:23 32° 291° (WNW) 07:58:05 145.90 MHz
STRAND 1 02 Oct 08:12:21 08:16:13 22° 268° (W) 08:20:07 ?
RS-15 02 Oct 08:21:25 08:30:46 30° 15° (NNE) 08:40:19 29.354 - 29.394 USB, Beacon 29.352 USB
AO-7 02 Oct 08:28:51 08:33:19 16° 319° (NW) 08:37:48 29.400 - 29.500 MHz
